TimeEST,TemperatureF,Dew PointF,Humidity,Sea Level PressureIn,VisibilityMPH,Wind Direction,Wind SpeedMPH,Gust SpeedMPH,PrecipitationIn,Events,Conditions,WindDirDegrees,DateUTC
12:15 AM,-9999,-9999,N/A,29.90,10.0,NW,4.6,-,0.02,,Overcast,320,2013-02-17 05:15:00
12:35 AM,-9999,-9999,N/A,29.90,10.0,Calm,Calm,-,0.02,,Overcast,0,2013-02-17 05:35:00
12:55 AM,-9999,-9999,N/A,29.91,10.0,WNW,4.6,-,0.03,,Overcast,290,2013-02-17 05:55:00
1:15 AM,-9999,-9999,N/A,29.92,10.0,Calm,Calm,-,N/A,,Overcast,0,2013-02-17 06:15:00
1:35 AM,30.2,30.2,100,29.92,7.0,WNW,5.8,-,N/A,,Overcast,300,2013-02-17 06:35:00
1:55 AM,-9999,-9999,N/A,29.93,10.0,Calm,Calm,-,N/A,,Overcast,0,2013-02-17 06:55:00
2:15 AM,-9999,-9999,N/A,29.93,10.0,Calm,Calm,-,N/A,,Overcast,0,2013-02-17 07:15:00
2:35 AM,-9999,-9999,N/A,29.93,10.0,WNW,3.5,-,0.01,,Scattered Clouds,290,2013-02-17 07:35:00
2:55 AM,-9999,-9999,N/A,29.94,10.0,Calm,Calm,-,0.02,,Scattered Clouds,0,2013-02-17 07:55:00
3:15 AM,-9999,-9999,N/A,29.94,10.0,West,5.8,-,N/A,,Scattered Clouds,280,2013-02-17 08:15:00
3:35 AM,-9999,-9999,N/A,29.94,10.0,WNW,3.5,-,N/A,,Clear,290,2013-02-17 08:35:00
3:55 AM,-9999,-9999,N/A,29.94,10.0,Calm,Calm,-,0.01,,Clear,0,2013-02-17 08:55:00
4:15 AM,-9999,-9999,N/A,29.95,10.0,Calm,Calm,-,N/A,,Clear,0,2013-02-17 09:15:00
4:35 AM,-9999,-9999,N/A,29.95,10.0,WNW,3.5,-,0.01,,Clear,290,2013-02-17 09:35:00
4:55 AM,-9999,-9999,N/A,29.97,10.0,West,3.5,-,0.01,,Clear,270,2013-02-17 09:55:00
5:15 AM,-9999,-9999,N/A,29.98,10.0,West,3.5,-,N/A,,Clear,270,2013-02-17 10:15:00
5:35 AM,-9999,-9999,N/A,29.99,10.0,WNW,3.5,-,N/A,,Clear,290,2013-02-17 10:35:00
5:55 AM,-9999,-9999,N/A,30.00,10.0,West,4.6,-,N/A,,Clear,270,2013-02-17 10:55:00
6:15 AM,-9999,-9999,N/A,30.00,10.0,WNW,4.6,-,N/A,,Clear,290,2013-02-17 11:15:00
6:35 AM,-9999,-9999,N/A,30.01,10.0,West,3.5,-,N/A,,Clear,270,2013-02-17 11:35:00
6:55 AM,26.6,26.6,100,30.02,10.0,WNW,3.5,-,N/A,,Clear,290,2013-02-17 11:55:00
7:15 AM,24.8,24.8,100,30.03,10.0,Calm,Calm,-,N/A,,Scattered Clouds,0,2013-02-17 12:15:00
7:35 AM,24.8,24.8,100,30.03,10.0,Calm,Calm,-,N/A,,Clear,0,2013-02-17 12:35:00
7:55 AM,26.6,26.6,100,30.05,10.0,WNW,4.6,-,N/A,,Clear,290,2013-02-17 12:55:00
8:15 AM,26.6,21.2,80,30.05,10.0,WNW,6.9,-,N/A,,Clear,300,2013-02-17 13:15:00
8:35 AM,26.6,21.2,80,30.06,10.0,NW,5.8,-,N/A,,Clear,310,2013-02-17 13:35:00
8:55 AM,28.4,21.2,74,30.07,10.0,NW,5.8,-,N/A,,Clear,320,2013-02-17 13:55:00
9:15 AM,28.4,21.2,74,30.08,10.0,NNW,5.8,-,N/A,,Clear,330,2013-02-17 14:15:00
9:35 AM,28.4,19.4,69,30.08,10.0,WNW,6.9,-,N/A,,Scattered Clouds,290,2013-02-17 14:35:00
9:55 AM,28.4,19.4,69,30.09,10.0,NW,8.1,16.1,N/A,,Mostly Cloudy,310,2013-02-17 14:55:00
10:15 AM,28.4,17.6,64,30.09,7.0,WNW,11.5,23.0,N/A,,Scattered Clouds,300,2013-02-17 15:15:00
10:35 AM,28.4,14.0,55,30.10,10.0,West,11.5,23.0,N/A,,Clear,280,2013-02-17 15:35:00
10:55 AM,28.4,12.2,51,30.11,10.0,WNW,8.1,21.9,N/A,,Clear,290,2013-02-17 15:55:00
11:15 AM,30.2,12.2,47,30.11,10.0,West,12.7,21.9,N/A,,Clear,270,2013-02-17 16:15:00
11:35 AM,30.2,12.2,47,30.11,10.0,WNW,8.1,18.4,N/A,,Scattered Clouds,290,2013-02-17 16:35:00
11:55 AM,30.2,10.4,44,30.10,10.0,NW,12.7,21.9,0.01,,Clear,310,2013-02-17 16:55:00
12:15 PM,32.0,10.4,41,30.11,10.0,West,6.9,18.4,N/A,,Clear,280,2013-02-17 17:15:00
12:35 PM,32.0,10.4,41,30.11,10.0,West,8.1,18.4,N/A,,Clear,270,2013-02-17 17:35:00
12:55 PM,32.0,10.4,41,30.10,10.0,WNW,12.7,19.6,N/A,,Clear,300,2013-02-17 17:55:00
1:15 PM,32.0,8.6,38,30.10,10.0,West,10.4,21.9,N/A,,Clear,270,2013-02-17 18:15:00
1:55 PM,32.0,8.6,38,30.09,10.0,WNW,9.2,21.9,N/A,,Clear,300,2013-02-17 18:55:00
2:15 PM,32.0,8.6,38,30.09,10.0,West,6.9,19.6,N/A,,Scattered Clouds,280,2013-02-17 19:15:00
2:35 PM,33.8,8.6,35,30.09,10.0,NW,11.5,23.0,N/A,,Clear,310,2013-02-17 19:35:00
2:55 PM,33.8,6.8,32,30.09,10.0,WNW,12.7,18.4,N/A,,Clear,300,2013-02-17 19:55:00
3:15 PM,33.8,6.8,32,30.10,10.0,West,11.5,24.2,N/A,,Clear,280,2013-02-17 20:15:00
3:35 PM,33.8,6.8,32,30.10,10.0,NW,9.2,-,N/A,,Clear,310,2013-02-17 20:35:00
3:55 PM,33.8,6.8,32,30.11,10.0,West,12.7,17.3,N/A,,Clear,280,2013-02-17 20:55:00
4:15 PM,33.8,6.8,32,30.11,10.0,WNW,8.1,18.4,N/A,,Clear,300,2013-02-17 21:15:00
4:35 PM,33.8,5.0,30,30.11,10.0,WNW,8.1,16.1,N/A,,Clear,300,2013-02-17 21:35:00
4:55 PM,33.8,5.0,30,30.12,10.0,WNW,8.1,-,N/A,,Clear,290,2013-02-17 21:55:00
5:15 PM,33.8,6.8,32,30.13,10.0,WNW,6.9,-,N/A,,Clear,290,2013-02-17 22:15:00
5:35 PM,33.8,6.8,32,30.13,10.0,WNW,4.6,-,N/A,,Clear,300,2013-02-17 22:35:00
5:55 PM,32.0,6.8,35,30.14,10.0,Calm,Calm,-,N/A,,Clear,0,2013-02-17 22:55:00
6:15 PM,32.0,6.8,35,30.15,10.0,Calm,Calm,-,N/A,,Clear,0,2013-02-17 23:15:00
6:35 PM,32.0,8.6,38,30.16,10.0,Calm,Calm,-,N/A,,Clear,0,2013-02-17 23:35:00
6:55 PM,28.4,12.2,51,30.16,10.0,Calm,Calm,-,N/A,,Clear,0,2013-02-17 23:55:00
7:15 PM,30.2,8.6,40,30.18,10.0,Calm,Calm,-,N/A,,Clear,0,2013-02-18 00:15:00
7:35 PM,30.2,8.6,40,30.18,10.0,Calm,Calm,-,N/A,,Clear,0,2013-02-18 00:35:00
7:55 PM,30.2,8.6,40,30.19,10.0,Calm,Calm,-,N/A,,Clear,0,2013-02-18 00:55:00
8:15 PM,30.2,8.6,40,30.20,10.0,Calm,Calm,-,N/A,,Clear,0,2013-02-18 01:15:00
8:35 PM,28.4,8.6,43,30.21,10.0,Calm,Calm,-,N/A,,Clear,0,2013-02-18 01:35:00
8:55 PM,28.4,8.6,43,30.22,10.0,Calm,Calm,-,N/A,,Clear,0,2013-02-18 01:55:00
9:15 PM,28.4,8.6,43,30.23,10.0,Calm,Calm,-,N/A,,Clear,0,2013-02-18 02:15:00
9:35 PM,28.4,10.4,47,30.23,10.0,Calm,Calm,-,N/A,,Clear,0,2013-02-18 02:35:00
9:55 PM,28.4,10.4,47,30.23,10.0,Calm,Calm,-,N/A,,Clear,0,2013-02-18 02:55:00
10:15 PM,28.4,8.6,43,30.24,10.0,Calm,Calm,-,N/A,,Clear,0,2013-02-18 03:15:00
10:35 PM,26.6,10.4,51,30.24,10.0,Calm,Calm,-,N/A,,Clear,0,2013-02-18 03:35:00
10:55 PM,26.6,12.2,55,30.25,10.0,Calm,Calm,-,N/A,,Clear,0,2013-02-18 03:55:00
11:15 PM,23.0,12.2,63,30.26,10.0,Calm,Calm,-,N/A,,Clear,0,2013-02-18 04:15:00
11:35 PM,23.0,12.2,63,30.27,10.0,Calm,Calm,-,N/A,,Clear,0,2013-02-18 04:35:00
11:55 PM,21.2,14.0,74,30.28,10.0,Calm,Calm,-,N/A,,Clear,0,2013-02-18 04:55:00